GW4147 Weather Reports


Display with metric or nautical units.
time (UTC)temp
F
wind
direction
speed
MPH
gust
MPH
rain 1hr
in
rain 24hr
in
rain mn
in
humidity
%
barometer
mb
20260504000029 79 180 7.0 9.0 0.00 0.00 0.00 33 1016.3
20260503235527 79 161 4.0 7.0 0.00 0.00 0.00 33 1016.5
20260503235024 79 211 3.0 6.0 0.00 0.00 0.00 33 1016.5
20260503234521 79 192 4.0 6.0 0.00 0.00 0.00 32 1016.6
20260503234020 79 195 3.0 9.0 0.00 0.00 0.00 32 1016.6
20260503233515 80 226 6.0 13.0 0.00 0.00 0.00 31 1016.6
20260503233011 79 195 10.0 11.0 0.00 0.00 0.00 32 1016.5
20260503232508 80 177 3.0 8.0 0.00 0.00 0.00 32 1016.7
20260503232006 80 264 3.0 11.0 0.00 0.00 0.00 32 1016.6
20260503231503 80 162 3.0 11.0 0.00 0.00 0.00 32 1016.7
20260503231000 81 204 5.0 8.0 0.00 0.00 0.00 30 1016.7
20260503230456 82 199 4.0 7.0 0.00 0.00 0.00 29 1016.7
20260503225954 81 230 6.0 12.0 0.00 0.00 0.00 29 1016.9
20260503225451 81 180 6.0 11.0 0.00 0.00 0.00 29 1016.9
20260503224946 81 227 8.0 15.0 0.00 0.00 0.00 30 1016.8
20260503224443 81 251 4.0 14.0 0.00 0.00 0.00 30 1016.8
20260503223941 82 243 8.0 10.0 0.00 0.00 0.00 29 1017.0
20260503223439 81 199 7.0 12.0 0.00 0.00 0.00 29 1017.1
20260503222934 82 240 3.0 6.0 0.00 0.00 0.00 30 1016.9
20260503222433 81 162 5.0 12.0 0.00 0.00 0.00 30 1017.2
20260503221931 81 206 6.0 9.0 0.00 0.00 0.00 28 1017.2
20260503221429 82 213 6.0 16.0 0.00 0.00 0.00 28 1017.3
20260503220925 82 172 3.0 7.0 0.00 0.00 0.00 29 1017.4
20260503220421 82 207 5.0 10.0 0.00 0.00 0.00 28 1017.3
20260503215919 82 230 6.0 8.0 0.00 0.00 0.00 30 1017.2
20260503215416 81 148 5.0 10.0 0.00 0.00 0.00 30 1017.4
20260503214913 81 226 7.0 14.0 0.00 0.00 0.00 27 1017.6
20260503214410 81 218 7.0 17.0 0.00 0.00 0.00 28 1017.5
20260503213908 81 211 2.0 7.0 0.00 0.00 0.00 31 1017.7
20260503213406 81 243 5.0 16.0 0.00 0.00 0.00 29 1017.6
20260503212902 81 218 10.0 12.0 0.00 0.00 0.00 30 1017.8
20260503212400 82 183 6.0 17.0 0.00 0.00 0.00 30 1017.7
20260503211857 81 205 4.0 9.0 0.00 0.00 0.00 32 1017.7
20260503211354 82 232 9.0 11.0 0.00 0.00 0.00 30 1018.0
20260503210848 82 187 5.0 11.0 0.00 0.00 0.00 31 1018.1
20260503210346 81 221 3.0 8.0 0.00 0.00 0.00 32 1018.2
20260503205841 82 232 6.0 10.0 0.00 0.00 0.00 32 1018.3
20260503205339 82 200 8.0 13.0 0.00 0.00 0.00 31 1018.1
20260503204835 82 110 3.0 9.0 0.00 0.00 0.00 31 1018.4
20260503204332 81 245 2.0 9.0 0.00 0.00 0.00 31 1018.4
20260503203829 81 187 4.0 9.0 0.00 0.00 0.00 32 1018.7
20260503203326 81 54 1.0 14.0 0.00 0.00 0.00 33 1018.8
20260503202823 81 225 7.0 7.0 0.00 0.00 0.00 32 1018.8
20260503202321 81 179 2.0 9.0 0.00 0.00 0.00 32 1018.9
20260503201819 81 222 3.0 10.0 0.00 0.00 0.00 31 1019.1
20260503201315 81 351 2.0 12.0 0.00 0.00 0.00 33 1019.0
20260503200814 81 185 9.0 10.0 0.00 0.00 0.00 29 1019.1
20260503200309 81 212 6.0 8.0 0.00 0.00 0.00 31 1019.2
20260503195807 80 224 5.0 11.0 0.00 0.00 0.00 32 1019.2
20260503195304 81 199 8.0 10.0 0.00 0.00 0.00 29 1019.2
20260503194800 81 133 2.0 8.0 0.00 0.00 0.00 35 1019.4
20260503194256 80 216 13.0 14.0 0.00 0.00 0.00 32 1019.3
20260503193753 80 216 5.0 11.0 0.00 0.00 0.00 33 1019.3
20260503193249 81 187 4.0 13.0 0.00 0.00 0.00 34 1019.7
20260503192745 80 212 9.0 10.0 0.00 0.00 0.00 34 1019.6
20260503192240 81 235 5.0 10.0 0.00 0.00 0.00 33 1019.9
20260503191737 81 222 5.0 9.0 0.00 0.00 0.00 33 1019.8
20260503191234 80 194 9.0 13.0 0.00 0.00 0.00 32 1019.9
20260503190731 80 202 6.0 11.0 0.00 0.00 0.00 33 1019.9
20260503190227 80 217 7.0 13.0 0.00 0.00 0.00 33 1020.0
20260503185725 80 222 5.0 10.0 0.00 0.00 0.00 35 1020.0
20260503185220 80 255 5.0 7.0 0.00 0.00 0.00 36 1020.1
20260503184715 80 241 3.0 8.0 0.00 0.00 0.00 35 1020.0
20260503184211 80 262 3.0 11.0 0.00 0.00 0.00 35 1020.1
20260503183708 80 216 2.0 13.0 0.00 0.00 0.00 36 1020.2
20260503183205 79 232 6.0 12.0 0.00 0.00 0.00 35 1020.2
20260503182703 79 232 8.0 13.0 0.00 0.00 0.00 35 1020.5
20260503182202 80 218 6.0 12.0 0.00 0.00 0.00 35 1020.5
20260503181657 79 225 7.0 11.0 0.00 0.00 0.00 36 1020.7
20260503181154 79 236 5.0 13.0 0.00 0.00 0.00 34 1020.6
20260503180651 79 221 9.0 13.0 0.00 0.00 0.00 36 1020.9
20260503180149 79 221 6.0 16.0 0.00 0.00 0.00 34 1020.9
20260503175646 79 247 14.0 14.0 0.00 0.00 0.00 34 1021.0
20260503175143 79 243 7.0 11.0 0.00 0.00 0.00 37 1021.0
20260503174640 78 268 9.0 11.0 0.00 0.00 0.00 38 1021.2
20260503174137 79 197 6.0 7.0 0.00 0.00 0.00 41 1021.5
20260503173632 79 189 7.0 10.0 0.00 0.00 0.00 39 1021.5
20260503173129 79 243 8.0 8.0 0.00 0.00 0.00 40 1021.5
20260503172626 79 207 3.0 7.0 0.00 0.00 0.00 39 1021.6
20260503172124 78 252 6.0 10.0 0.00 0.00 0.00 43 1021.5
20260503171620 77 244 4.0 10.0 0.00 0.00 0.00 43 1021.7
20260503171117 77 208 8.0 13.0 0.00 0.00 0.00 42 1021.8
20260503170614 77 204 6.0 10.0 0.00 0.00 0.00 42 1021.8
20260503170110 77 247 6.0 12.0 0.00 0.00 0.00 42 1021.9
20260503150959 72 245 4.0 9.0 0.00 0.00 0.00 49 1022.3
20260503150456 71 246 1.0 7.0 0.00 0.00 0.00 51 1022.1
20260503131349 63 186 2.0 5.0 0.00 0.00 0.00 64 1022.0
20260503130847 63 248 4.0 9.0 0.00 0.00 0.00 63 1022.0
20260503130344 62 211 2.0 4.0 0.00 0.00 0.00 65 1021.8
20260503110732 56 170 2.0 3.0 0.00 0.00 0.00 74 1021.0
20260503110229 56 152 0.0 2.0 0.00 0.00 0.00 73 1020.9
20260503100150 56 116 1.0 3.0 0.00 0.00 0.00 72 1020.8
20260503090109 56 160 0.0 2.0 0.00 0.00 0.00 74 1021.0
20260503081539 57 77 0.0 1.0 0.00 0.00 0.00 71 1020.9
20260503081036 57 135 2.0 3.0 0.00 0.00 0.00 71 1020.9
20260503080532 57 133 1.0 3.0 0.00 0.00 0.00 71 1021.0
20260503072506 58 168 0.0 1.0 0.00 0.00 0.00 72 1021.4
20260503072003 58 127 1.0 2.0 0.00 0.00 0.00 71 1021.0
20260503071500 58 116 1.0 2.0 0.00 0.00 0.00 71 1021.1
20260503070956 59 119 1.0 2.0 0.00 0.00 0.00 71 1021.4
20260503070453 59 158 0.0 2.0 0.00 0.00 0.00 70 1021.1
20260503054911 60 166 1.0 1.0 0.00 0.00 0.00 73 1021.0
20260503054408 60 73 0.0 2.0 0.00 0.00 0.00 73 1020.9
20260503053906 60 134 0.0 2.0 0.00 0.00 0.00 72 1020.9
20260503053403 60 189 1.0 2.0 0.00 0.00 0.00 72 1020.8
20260503052859 60 127 0.0 3.0 0.00 0.00 0.00 71 1020.9
20260503052356 60 156 2.0 2.0 0.00 0.00 0.00 71 1020.8
20260503051853 60 155 0.0 2.0 0.00 0.00 0.00 71 1020.9
20260503051349 60 133 1.0 2.0 0.00 0.00 0.00 72 1020.8
20260503050846 60 113 0.0 1.0 0.00 0.00 0.00 71 1020.9
20260503050342 61 168 0.0 1.0 0.00 0.00 0.00 70 1020.9
20260503045840 61 180 0.0 1.0 0.00 0.00 0.00 70 1020.7
20260503045337 61 192 0.0 3.0 0.00 0.00 0.00 70 1020.9
20260503044834 60 136 1.0 2.0 0.00 0.00 0.00 70 1020.7
20260503044331 61 155 2.0 2.0 0.00 0.00 0.00 70 1020.8
20260503043828 61 166 2.0 2.0 0.00 0.00 0.00 69 1020.7
20260503043325 61 164 0.0 2.0 0.00 0.00 0.00 69 1020.7
20260503042821 61 122 0.0 2.0 0.00 0.00 0.00 69 1020.7
20260503042318 61 164 0.0 2.0 0.00 0.00 0.00 68 1020.6
20260503041814 61 152 1.0 2.0 0.00 0.00 0.00 68 1020.6
20260503041312 61 166 0.0 1.0 0.00 0.00 0.00 67 1020.7
20260503040809 61 201 1.0 2.0 0.00 0.00 0.00 67 1020.9
20260503040307 61 146 0.0 2.0 0.00 0.00 0.00 66 1020.7
20260503035803 61 153 2.0 2.0 0.00 0.00 0.00 66 1020.9
20260503035300 62 166 1.0 2.0 0.00 0.00 0.00 65 1020.8
20260503034758 62 164 0.0 2.0 0.00 0.00 0.00 65 1020.8
20260503034254 61 173 0.0 2.0 0.00 0.00 0.00 65 1020.7
20260503033752 61 182 0.0 2.0 0.00 0.00 0.00 65 1020.8
20260503033249 62 156 0.0 1.0 0.00 0.00 0.00 64 1020.7
20260503032747 62 230 0.0 2.0 0.00 0.00 0.00 64 1020.7
20260503032246 62 132 1.0 1.0 0.00 0.00 0.00 63 1020.7
20260503031743 62 170 0.0 1.0 0.00 0.00 0.00 63 1020.7
20260503031241 62 193 1.0 1.0 0.00 0.00 0.00 63 1020.6
20260503030737 62 144 0.0 2.0 0.00 0.00 0.00 63 1020.6
20260503030233 62 178 0.0 2.0 0.00 0.00 0.00 62 1020.6
20260503025730 62 175 1.0 2.0 0.00 0.00 0.00 63 1020.7
20260503025228 62 202 0.0 0.0 0.00 0.00 0.00 62 1020.5
20260503024724 63 194 0.0 2.0 0.00 0.00 0.00 60 1020.6
20260503024222 63 179 1.0 1.0 0.00 0.00 0.00 59 1020.6
20260503023718 63 117 0.0 2.0 0.00 0.00 0.00 59 1020.3
20260503023215 63 152 0.0 1.0 0.00 0.00 0.00 58 1020.4
20260503022711 63 121 0.0 2.0 0.00 0.00 0.00 58 1020.2
20260503022211 64 153 1.0 2.0 0.00 0.00 0.00 58 1020.2
20260503021708 64 167 2.0 2.0 0.00 0.00 0.00 57 1020.2
20260503021204 64 153 2.0 2.0 0.00 0.00 0.00 57 1020.2
20260503020702 64 115 0.0 2.0 0.00 0.00 0.00 57 1020.3
20260503020159 64 176 2.0 2.0 0.00 0.00 0.00 57 1020.1
20260503015656 65 170 0.0 1.0 0.00 0.00 0.00 55 1020.2
20260503015153 65 186 0.0 1.0 0.00 0.00 0.00 54 1020.1
20260503014648 65 172 1.0 2.0 0.00 0.00 0.00 54 1020.0
20260503014147 66 180 1.0 2.0 0.00 0.00 0.00 54 1020.0
20260503013643 66 191 0.0 1.0 0.00 0.00 0.00 53 1020.1
20260503013142 66 142 1.0 1.0 0.00 0.00 0.00 52 1020.0
20260503012638 66 173 1.0 1.0 0.00 0.00 0.00 52 1020.0
20260503012135 67 174 1.0 1.0 0.00 0.00 0.00 51 1019.9
20260503011632 67 180 0.0 1.0 0.00 0.00 0.00 51 1020.0
20260503011129 68 113 0.0 1.0 0.00 0.00 0.00 50 1019.7
20260503010625 69 224 0.0 2.0 0.00 0.00 0.00 50 1019.8
20260503010123 69 141 0.0 1.0 0.00 0.00 0.00 48 1019.9
20260503005619 71 164 0.0 3.0 0.00 0.00 0.00 47 1019.7
20260503005117 71 230 0.0 1.0 0.00 0.00 0.00 46 1019.7
20260503004613 72 217 0.0 1.0 0.00 0.00 0.00 44 1019.7
20260503004112 73 201 0.0 2.0 0.00 0.00 0.00 43 1019.7
20260503003608 73 186 1.0 2.0 0.00 0.00 0.00 43 1019.6
20260503003105 74 216 1.0 2.0 0.00 0.00 0.00 42 1019.6
20260503002602 74 222 0.0 3.0 0.00 0.00 0.00 41 1019.6
20260503002058 74 38 0.0 3.0 0.00 0.00 0.00 41 1019.7
20260503001555 75 190 0.0 3.0 0.00 0.00 0.00 41 1019.7
20260503001052 75 187 3.0 4.0 0.00 0.00 0.00 38 1019.5
20260503000544 75 230 2.0 3.0 0.00 0.00 0.00 38 1019.6